Regional Weather Roundup
Issued by NWS

Home | Current Version | Previous Version | Text Only | Print | Product List | Glossary On
Versions: 1 2 3 4 5 6 7 8 9 10 11 12 13 14 15 16 17 18 19 20 21 22 23 24 25 26 27 28 29 30 31 32 33 34 35 36 37 38 39 40 41 42 43 44 45 46 47 48 49 50
554
ASUS44 KJAN 010010
RWRMS

MISSISSIPPI HOURLY WEATHER ROUNDUP
NATIONAL WEATHER SERVICE JACKSON MS
600 PM CST SAT FEB 28 2015

NOTE: "FAIR: INDICATES FEW OR NO CLOUDS BELOW 12,000 FEET WITH NO
SIGNIFICANT WEATHER AND/OR OBSTRUCTIONS TO VISIBILITY.

MSZ001>002-007>008-010>013-018>021-025>028-034>036-010100-
NORTHWEST MISSISSIPPI

CITY           SKY/WX    TMP DP  RH WIND       PRES   REMARKS
CLARKSDALE     CLOUDY    41  36  81 E9        30.34F
CLEVELAND      CLOUDY    47  39  74 CALM      30.35F
GREENWOOD        N/A    N/A N/A N/A MISG      30.36R
GREENVILLE     CLOUDY    47  37  68 E7        30.34F
6HR MIN TEMP:  43; 6HR MAX TEMP:  48;

OLIVE BRANCH   MOCLDY    45  25  45 E6        30.35F
OXFORD         FAIR      48  28  46 SE5       30.39S HAZE
TUNICA         CLOUDY    41  32  70 CALM      30.36F
$$

MSZ003>006-009-014>017-022>024-029>033-037>039-010100-
NORTHEAST MISSISSIPPI

CITY           SKY/WX    TMP DP  RH WIND       PRES   REMARKS
COLUMBUS AFB   CLOUDY    52  33  49 N5        30.37R
6HR MIN TEMP:  50; 6HR MAX TEMP:  58;

CORINTH        FAIR      50  30  46 CALM      30.37F
GOLDN TRIANGLE CLOUDY    52  37  58 N7        30.36S
STARKVILLE     CLOUDY    54  36  50 NE7       30.36S
TUPELO         CLOUDY    50  32  50 CALM      30.38F
6HR MIN TEMP:  44; 6HR MAX TEMP:  54;

$$

MSZ040-058-010100-
CENTRAL MISSISSIPPI

CITY           SKY/WX    TMP DP  RH WIND       PRES   REMARKS
JACKSON INTL   MOCLDY    61  32  33 SE5       30.32R
6HR MIN TEMP:  59; 6HR MAX TEMP:  68;

JACKSON HAWKNS CLOUDY    61  30  31 SE5       30.32S
6HR MIN TEMP:  54; 6HR MAX TEMP:  68;

MERIDIAN KEY   CLEAR     60  30  32 E5        30.34S
6HR MIN TEMP:  57; 6HR MAX TEMP:  65;

MERIDIAN NAS   CLEAR     59  32  36 NE5       30.36R
6HR MIN TEMP:  58; 6HR MAX TEMP:  65;

VICKSBURG      CLOUDY    50  38  63 N9        30.32F
6HR MIN TEMP:  50; 6HR MAX TEMP:  60;

$$

MSZ059>079-010100-
SOUTH MISSISSIPPI

CITY           SKY/WX    TMP DP  RH WIND       PRES   REMARKS
BROOKHAVEN     FAIR      61  34  36 CALM      30.32S
HATTIESBURG    CLEAR     62  38  40 CALM      30.33R
6HR MIN TEMP:  61; 6HR MAX TEMP:  68;

MCCOMB         CLEAR     62  35  36 E3        30.31R
6HR MIN TEMP:  59; 6HR MAX TEMP:  68;

NATCHEZ        CLOUDY    64  34  32 E5        30.30S
6HR MIN TEMP:  57; 6HR MAX TEMP:  66;

PINE BELT      CLEAR     57  37  47 CALM      30.34R
6HR MIN TEMP:  57; 6HR MAX TEMP:  66;

$$

MSZ080>082-010100-
COASTAL MISSISSIPPI

CITY           SKY/WX    TMP DP  RH WIND       PRES   REMARKS
BAY ST LOUIS   CLEAR     57  46  67 SE9       30.34R
BILOXI         CLEAR     55  51  86 SE7       30.34R
6HR MIN TEMP:  55; 6HR MAX TEMP:  63;

PASCAGOULA     CLEAR     54  49  83 SE6       30.34R
6HR MIN TEMP:  54; 6HR MAX TEMP:  66;

GULFPORT       CLEAR     54  50  86 SE10      30.34R
6HR MIN TEMP:  54; 6HR MAX TEMP:  62;

$$



USA.gov is the U.S. government's official web portal to all federal, state and local government web resources and services.